Location: *
(58.7167°N, 26.1833°E)
Time: 08:54:44
(UTC+00:00)

Meteor 1-29 - Pass Details

Date: 25 August 2019
Orbit: 440 x 462 km, 97.7° (Epoch: 23 September)

Event Time Altitude Azimuth Distance (km) Brightness Sun altitude
Rises 21:50:34 0° 19° (NNE) 2,450 7.8 -20.5°
Reaches altitude 10° 21:52:39 10° 25° (NNE) 1,574 6.5 -20.5°
Enters shadow 21:55:39 47° 83° (E) 600 3.4 -20.5°
